Погода в Новом Рахино

Россия / Новгородская область     58°08′38″N   32°45′36″E
темп.,
°C
ветер,
м/с
пор.,
м/с
влажн.,
%
обл.,
%
осадки,
мм/ч
давл.,
гПа
погр.,
м
22 января, сб
сб2200:00−9св2796100 0.0 1001150
03:00−7ссв3896100 0.3 1001460
06:00−7св4992100 0.6 1004691
09:00−9св4109282 0.6 1007380
12:00−9св389299 0.0 1010469
15:00−9св379386 0.1 1012372
18:00−13св259756 0.0 101599
21:00−14св289643 0.0 1017144
23 января, вс
вс2300:00−14всв399629 0.0 1020153
03:00−16всв249730 0.0 102270
06:00−20св2210041 0.0 102525
09:00−20в2310049 0.0 102744
12:00−13вюв119547 0.0 103075
15:00−10з1196100 0.0 103150
18:00−18юв0010070 0.0 10349
21:00−20ююв1110083 0.0 10359
24 января, пн
пн2400:00−21ююв2210098 0.0 103717
03:00−20ююв2210098 0.0 103734
06:00−21ююв2310099 0.0 103741
09:00−19ю2610098 0.0 103795
12:00−11ю3109546 0.0 1036219
15:00−8ююз412915 0.0 1034370
18:00−8ю413905 0.0 1032350
21:00−9ю515895 0.0 1030366
25 января, вт
вт2500:00−9ю516875 0.0 1028404
03:00−9ююз517845 0.0 1025457
06:00−9ю51684100 0.0 1022479
09:00−8ююз51595100 0.8 1019528
12:00−7ююз41295100 1.1 1017493
15:00−6юз3896100 2.4 1016470
18:00−6юз2696100 1.0 1015268
21:00−6ююз1398100 1.2 1015134
26 января, ср
ср2600:00−8ююз119886 0.4 101510
03:00−6сз289792 0.8 1016250
06:00−8сз269797 0.1 1017160
09:00−9ссз259798 0.4 1017123
12:00−7ссв259575 0.1 1017203
15:00−6с2494100 0.1 1017385
18:00−12св219974 0.1 101729
21:00−18всв11100100 0.1 10179